This demonstration page uses our WeatherBlox Daily Observations layout. Learn more.

Left ArrowRight Arrow

53.62937, 11.41316

Hourly Observations for December 23, 2019

Temp ( °F °C ) Dew Point ( °F °C ) Humidity (%) Winds ( mph kmh ) Pressure ( in mb ) Visibility ( mi km ) Precip ( " mm )
6:20 am 06:20 Mostly Cloudy with Light Rain 45 7 43 6 93 93 WSW 9 15 29.35 994 6 9 N/A
6:50 am 06:50 Mostly Cloudy 45 7 43 6 93 93 W 10 17 29.35 994 30 48 N/A
7:20 am 07:20 Mostly Cloudy 45 7 41 5 87 87 WSW 12 19 29.38 995 6 9 N/A
7:50 am 07:50 Mostly Cloudy 45 7 41 5 87 87 W 12 19 29.41 996 6 9 N/A
8:20 am 08:20 Mostly Cloudy 45 7 41 5 87 87 WSW 12 19 29.41 996 6 9 N/A
8:50 am 08:50 Mostly Cloudy 45 7 41 5 87 87 WSW 10 17 29.44 997 30 48 N/A
9:20 am 09:20 Mostly Cloudy 45 7 43 6 93 93 WSW 10 17 29.44 997 30 48 N/A
9:50 am 09:50 Mostly Cloudy 45 7 43 6 93 93 WSW 13 20 29.47 998 30 48 N/A
10:20 am 10:20 Mostly Cloudy 45 7 43 6 93 93 WSW 13 20 29.47 998 30 48 N/A
10:50 am 10:50 Mostly Cloudy 45 7 43 6 93 93 WSW 12 19 29.50 999 30 48 N/A
11:20 am 11:20 Mostly Cloudy 46 8 41 5 82 82 WSW 14 22 29.50 999 30 48 N/A
11:50 am 11:50 Mostly Cloudy 46 8 41 5 82 82 WSW 13 20 29.50 999 30 48 N/A
12:20 pm 12:20 Mostly Cloudy 46 8 41 5 82 82 WSW 14 22 29.53 1000 30 48 N/A
12:50 pm 12:50 Mostly Cloudy 46 8 41 5 82 82 WSW 14 22 29.53 1000 30 48 N/A
1:20 pm 13:20 Mostly Cloudy 46 8 41 5 82 82 WSW 14 22 29.56 1001 30 48 N/A
1:50 pm 13:50 Partly Cloudy 46 8 41 5 82 82 W 14 22 29.56 1001 30 48 N/A
2:20 pm 14:20 Partly Cloudy 46 8 41 5 82 82 WSW 12 19 29.59 1002 30 48 N/A
2:50 pm 14:50 Mostly Cloudy 46 8 41 5 82 82 WSW 12 19 29.59 1002 30 48 N/A
3:20 pm 15:20 Mostly Cloudy 46 8 41 5 82 82 WSW 13 20 29.59 1002 30 48 N/A
3:50 pm 15:50 Mostly Cloudy 46 8 41 5 82 82 W 10 17 29.62 1003 30 48 N/A
4:20 pm 16:20 Partly Cloudy 46 8 41 5 82 82 W 13 20 29.62 1003 30 48 N/A
4:50 pm 16:50 Mostly Clear 45 7 39 4 81 81 W 9 15 29.65 1004 30 48 N/A
5:20 pm 17:20 Mostly Clear 45 7 39 4 81 81 W 10 17 29.65 1004 30 48 N/A
5:50 pm 17:50 Mostly Clear 45 7 39 4 81 81 W 8 13 29.68 1005 30 48 N/A
6:20 pm 18:20 Partly Cloudy 43 6 39 4 87 87 WSW 6 9 29.68 1005 30 48 N/A
6:50 pm 18:50 Partly Cloudy 43 6 39 4 87 87 WSW 6 9 29.68 1005 30 48 N/A
7:20 pm 19:20 Partly Cloudy 43 6 39 4 87 87 WSW 9 15 29.68 1005 30 48 N/A
7:50 pm 19:50 Partly Cloudy 43 6 39 4 87 87 WSW 9 15 29.71 1006 30 48 N/A

Powered by AerisWeather